Printer-friendly version
Follow the MPC on Twitter Follow the MPC on Facebook The MPC blog
Minor Planet Center

MPEC 2009-R37 : 2009 RO

The following Minor Planet Electronic Circular may be linked-to from your own Web pages, but must not otherwise be redistributed electronically.

A form allowing access to any MPEC is at the bottom of this page.


Read MPEC 2009-R36 Read MPEC 2009-R38


M.P.E.C. 2009-R37                                Issued 2009 Sept. 11, 11:22 UT

     The Minor Planet Electronic Circulars contain information on unusual
         minor planets and routine data on comets.  They are published
   on behalf of Commission 20 of the International Astronomical Union by the
          Minor Planet Center, Smithsonian Astrophysical Observatory,
                          Cambridge, MA 02138, U.S.A.

             Prepared using the Tamkin Foundation Computer Network

                              MPC@CFA.HARVARD.EDU
          URL http://www.cfa.harvard.edu/iau/mpc.html  ISSN 1523-6714

                                    2009 RO

Observations:
     K09R00O  C2009 08 27.15171 21 07 02.82 +10 03 15.3          18.4 V ER037703
     K09R00O  C2009 08 27.15609 21 07 02.96 +10 03 13.1          18.5 V ER037703
     K09R00O  C2009 08 27.16042 21 07 03.07 +10 03 10.4          18.3 V ER037703
     K09R00O  C2009 08 27.16484 21 07 03.21 +10 03 08.2          18.6 V ER037703
     K09R00O* C2009 09 11.18094 21 22 35.90 +06 33 10.2          18.2 V ER037703
     K09R00O  C2009 09 11.18579 21 22 36.15 +06 33 05.4          18.6 V ER037703
     K09R00O  C2009 09 11.19072 21 22 36.62 +06 33 00.0          18.5 V ER037703
     K09R00O  C2009 09 11.19557 21 22 36.94 +06 32 54.6          18.6 V ER037703
     K09R00O  C2009 09 11.24254 21 22 40.54 +06 32 07.3          18.3 V ER037703
     K09R00O  C2009 09 11.25054 21 22 41.08 +06 31 58.8          18.5 V ER037703
     K09R00O  C2009 09 11.25847 21 22 41.70 +06 31 50.4          18.4 V ER037703
     K09R00O  C2009 09 11.26648 21 22 42.31 +06 31 42.2          18.4 V ER037703
     K09R00O  C2009 09 11.31027 21 22 45.63 +06 30 57.0          18.5 R ER037854
     K09R00O  C2009 09 11.31506 21 22 46.01 +06 30 52.3          19.0 R ER037854
     K09R00O  C2009 09 11.31986 21 22 46.37 +06 30 47.0          18.9 R ER037854

Observer details:
703 Catalina Sky Survey.  Observers R. A. Kowalski, R. E. Hill.  Measurers
    E. C. Beshore, A. Boattini, G. J. Garradd, A. R. Gibbs, A. D. Grauer,
    R. E. Hill, R. A. Kowalski, S. M. Larson, R. H. McNaught.  0.68-m Schmidt
    + CCD.
854 Sabino Canyon Observatory, Tucson.  Observer J. E. McGaha.  0.36-m f/10.0
    Schmidt-Cassegrain + CCD.

Orbital elements:
2009 RO
Epoch 2009 June 18.0 TT = JDT 2455000.5                 MPC
M 345.35014              (2000.0)            P               Q
n   0.14860124     Peri.  152.62292     +0.98786804     +0.14403431
a   3.5301061      Node   199.35908     -0.15385851     +0.95849783
e   0.6110697      Incl.   10.08722     +0.02107843     +0.24604070
P   6.63           H   18.7           G   0.15           U   9
Residuals in seconds of arc
090827 703  0.7+  0.4-    090911 703  1.1-  0.2+    090911 703  0.0   0.1-
090827 703  0.4+  0.1+    090911 703  0.3+  0.2-    090911 703  0.1+  0.0
090827 703  0.4-  0.1-    090911 703  0.3-  0.6-    090911 854  0.1-  0.0
090827 703  0.7-  0.4+    090911 703  0.6+  0.4+    090911 854  0.1+  0.3+
090911 703  0.6+  0.0     090911 703  0.3-  0.1+    090911 854  0.0   0.0

Ephemeris:
2009 RO                  a,e,i = 3.53, 0.61, 10                  q = 1.3730
Date    TT    R. A. (2000) Decl.     Delta      r     Elong.  Phase     V
2009 09 06    21 16.08   +07 57.4    0.420    1.389   150.6    20.9    18.6
2009 09 16    21 29.77   +05 07.7    0.417    1.377   147.8    22.9    18.6
2009 09 26    21 48.06   +02 01.6    0.428    1.373   144.3    25.2    18.7
2009 10 06    22 10.20   -00 51.7    0.453    1.379   140.4    27.5    18.9
2009 10 16    22 34.80   -03 09.2    0.492    1.395   136.2    29.6    19.2
2009 10 26    23 00.52   -04 38.0    0.547    1.419   131.9    31.4    19.5
2009 11 05    23 26.26   -05 16.3    0.616    1.452   127.6    32.8    19.8
2009 11 15    23 51.25   -05 10.1    0.699    1.492   123.2    33.7    20.2
2009 11 25    00 15.24   -04 28.3    0.796    1.538   118.9    34.2    20.6
2009 12 05    00 38.17   -03 20.3    0.905    1.590   114.4    34.4    20.9
2009 12 15    01 00.10   -01 54.6    1.026    1.646   109.9    34.2    21.3
2009 12 25    01 21.23   -00 17.8    1.159    1.706   105.3    33.8    21.6
2010 01 04    01 41.71   +01 24.5    1.302    1.770   100.6    33.1    21.9

Timothy B. Spahr             (C) Copyright 2009 MPC           M.P.E.C. 2009-R37

Read MPEC 2009-R36 Read MPEC 2009-R38


MPEC number:

Enter an MPEC number in one of the following forms:

  • 1997-B01 (the full form)
  • J97B01 (the packed version of the full form)
  • B01 (the abbreviated form)

Valid HTML 4.01!